Weather History for Lumberton, NC

Change the Weather History Date:

Monday, December 16, 2013

  Actual Average Record
Temperature  
Mean Temperature 44 °F 46 °F  
Max Temperature 57 °F 56 °F 75 °F (2011)
Min Temperature 30 °F 36 °F 17 °F (2004)
Degree Days  
Heating Degree Days 21 19  
Month to date heating degree days 247 277  
Since 1 July heating degree days 763 743  
Cooling Degree Days 0 0  
Month to date cooling degree days 6 0  
Year to date cooling degree days 1867 1907  
Moisture  
Dew Point 34 °F    
Average Humidity 70    
Maximum Humidity 96    
Minimum Humidity 43    
Precipitation  
Precipitation 0.00 in 0.09 in 0.27 in (2007)
Month to date precipitation 2.73 1.65  
Year to date precipitation 42.93 42.28  
Sea Level Pressure  
Sea Level Pressure 30.16 in    
Wind  
Wind Speed 4 mph (SW)    
Max Wind Speed 12 mph    
Max Gust Speed 14 mph    
Visibility 9 miles    
Events      
T = Trace of Precipitation, MM = Missing Value Source: NWS Daily Summary

Daily Weather History Graph

Daily Weather History Graph

Search for Another Location

Airport:

Trip Planner

Search our weather history database for the weather conditions in past years. The results will help you decide how hot, cold, wet, or windy it might be!

Date:

Astronomy

Dec. 16, 2013 Rise Set
Actual Time 7:16 AM EST 5:07 PM EST
Civil Twilight 6:48 AM EST 5:35 PM EST
Nautical Twilight 6:17 AM EST 6:06 PM EST
Astronomical Twilight 5:46 AM EST 6:37 PM EST
Moon 4:54 PM EST (12/16) 6:25 AM EST (12/16)
Length of Visible Light 10h 46m
Length of Day
9h 50m
Full, 100% of the Moon is Illuminated
Dec 16
Full
Dec 17
Full
Dec 25
Last Quarter
Jan 1
New
Jan 7
First Quarter

Hourly Weather History & Observations

Time (EST) Temp. Windchill Dew Point Humidity Pressure Visibility Wind Dir Wind Speed Gust Speed Precip Events Conditions
12:54 AM 34.0 °F - 32.0 °F 92% 30.12 in 8.0 mi Calm Calm - N/A   Clear
1:54 AM 33.1 °F 30.0 °F 30.9 °F 92% 30.12 in 10.0 mi NW 3.5 mph - N/A   Clear
2:54 AM 34.0 °F 31.0 °F 30.9 °F 89% 30.12 in 10.0 mi SW 3.5 mph - N/A   Clear
3:54 AM 32.0 °F - 30.9 °F 96% 30.13 in 8.0 mi Calm Calm - N/A   Clear
4:54 AM 32.0 °F 27.5 °F 30.0 °F 92% 30.14 in 10.0 mi WSW 4.6 mph - N/A   Clear
5:54 AM 32.0 °F - 30.0 °F 92% 30.15 in 8.0 mi Calm Calm - N/A   Clear
6:54 AM 30.0 °F - 28.9 °F 96% 30.17 in 6.0 mi Calm Calm - N/A   Clear
7:54 AM 32.0 °F - 30.9 °F 96% 30.18 in 4.0 mi Calm Calm - N/A   Clear
8:54 AM 37.9 °F 35.5 °F 32.0 °F 79% 30.19 in 10.0 mi WSW 3.5 mph - N/A   Clear
9:54 AM 43.0 °F 40.3 °F 33.1 °F 68% 30.21 in 10.0 mi Variable 4.6 mph - N/A   Clear
10:54 AM 48.0 °F - 33.1 °F 56% 30.20 in 10.0 mi WNW 4.6 mph - N/A   Clear
11:54 AM 50.0 °F - 35.1 °F 57% 30.18 in 10.0 mi SW 5.8 mph - N/A   Clear
12:54 PM 53.1 °F - 35.1 °F 50% 30.15 in 10.0 mi SW 6.9 mph - N/A   Clear
1:54 PM 55.0 °F - 34.0 °F 45% 30.13 in 10.0 mi SW 9.2 mph - N/A   Clear
2:54 PM 55.9 °F - 35.1 °F 45% 30.13 in 10.0 mi SW 10.4 mph - N/A   Clear
3:54 PM 55.9 °F - 35.1 °F 45% 30.13 in 10.0 mi SSW 8.1 mph - N/A   Clear
4:54 PM 54.0 °F - 36.0 °F 51% 30.14 in 10.0 mi South 4.6 mph - N/A   Clear
5:54 PM 46.0 °F - 39.0 °F 76% 30.16 in 10.0 mi Calm Calm - N/A   Clear
6:54 PM 44.1 °F 40.8 °F 39.0 °F 82% 30.17 in 10.0 mi South 5.8 mph - N/A   Clear
7:54 PM 43.0 °F 41.3 °F 37.0 °F 80% 30.17 in 10.0 mi South 3.5 mph - N/A   Clear
8:54 PM 41.0 °F - 37.9 °F 89% 30.18 in 10.0 mi Calm Calm - N/A   Clear
9:54 PM 39.0 °F - 36.0 °F 89% 30.17 in 10.0 mi Calm Calm - N/A   Clear
10:54 PM 43.0 °F 40.3 °F 36.0 °F 76% 30.18 in 10.0 mi SSW 4.6 mph - N/A   Clear
11:54 PM 41.0 °F - 36.0 °F 82% 30.17 in 10.0 mi Calm Calm - N/A   Clear